GFSGBSN_250_rhum_276.txt.gz
RH
100 87 91 92 95 100 100 100 89 100 90 96 100 100 100 100 89 81 65 74 69 59 56 38 35 35 33 32 38 41 41 44 45 47 53 73 85 100 100 100 86 72 70 60 99 76 83
100 100 98 76 74 100 100 100 98 90 100 98 100 100 100 100 100 88 92 78 68 69 71 63 47 35 36 37 39 38 42 52 55 82 100 100 100 98 73 100 100 69 76 91 70 92 82
100 100 100 100 82 79 92 100 98 86 100 100 97 100 100 100 100 100 99 92 95 83 71 72 74 70 54 56 55 42 50 58 67 89 95 100 100 89 98 100 100 82 38 79 100 100 100
66 89 99 100 100 100 83 66 70 80 88 100 100 96 68 100 100 100 100 100 100 95 98 95 85 86 83 70 72 66 76 90 100 100 96 94 84 73 61 56 73 59 79 99 89 100 100
38 74 84 90 100 100 100 94 90 76 75 89 90 96 99 91 85 96 100 100 100 100 99 96 86 80 87 87 74 70 54 51 46 41 46 44 46 38 42 68 67 75 100 100 100 98 100
12 14 40 70 88 93 100 100 100 100 92 76 79 74 88 100 95 71 87 100 100 100 99 100 92 90 77 87 90 82 84 91 96 98 84 75 85 99 100 98 100 100 100 96 86 82 100
12 9 11 28 55 81 89 97 100 100 100 100 100 76 100 86 100 99 73 87 93 94 100 100 100 100 100 95 100 82 65 64 47 78 100 100 100 100 100 100 100 100 100 100 96 100 95
20 15 11 11 21 49 73 75 81 98 100 100 100 98 96 90 79 89 95 97 71 80 82 72 87 95 96 96 100 100 100 100 100 100 100 98 95 100 100 100 100 100 100 100 100 100 100
14 14 17 16 13 13 35 63 61 66 90 100 100 100 100 100 75 67 88 99 97 90 83 92 69 74 92 88 84 100 99 99 100 100 90 99 100 99 100 100 100 100 92 100 100 100 100
14 12 12 14 17 17 13 20 40 48 62 67 99 100 100 100 100 100 71 76 91 91 87 96 89 70 61 62 53 79 71 68 77 86 63 78 65 67 67 84 95 95 92 100 100 100 100
13 12 13 12 13 15 17 18 16 20 30 41 54 99 100 100 100 100 100 69 69 68 74 82 84 89 96 88 77 68 64 52 53 60 64 65 61 68 67 72 73 73 81 80 96 100 100
19 20 18 12 12 12 14 14 18 22 22 18 25 60 81 100 100 100 100 100 81 62 53 66 73 84 94 98 98 86 81 67 56 54 55 65 60 57 61 84 84 90 86 94 99 100 100
19 18 16 16 15 10 12 14 15 17 23 18 17 22 36 45 92 100 100 100 100 56 54 46 45 51 77 80 73 82 79 86 84 82 92 92 91 74 73 98 100 93 97 94 94 100 97
13 13 13 13 16 18 12 12 13 17 17 20 24 20 20 21 37 75 100 100 100 98 63 53 56 38 38 50 48 52 60 64 76 96 89 93 96 100 89 86 100 100 94 92 92 79 79
8 7 6 6 8 11 12 11 12 14 16 18 19 24 20 21 22 26 54 92 94 100 100 100 80 72 45 45 47 45 44 43 56 60 71 88 82 79 74 67 88 93 83 72 77 70 53
7 6 5 4 4 6 9 9 10 12 15 16 18 18 22 24 25 23 24 39 59 83 92 100 100 87 81 65 62 51 49 42 32 33 36 39 47 43 44 64 65 59 56 57 50 36 36
6 5 5 5 4 5 6 8 10 11 12 15 17 16 38 25 24 24 20 19 21 24 25 42 72 94 100 97 63 57 70 47 33 34 34 36 32 32 37 35 34 44 38 29 26 26 27
5 4 4 4 4 5 6 6 8 11 12 15 16 16 32 20 24 22 20 21 18 20 20 18 17 22 34 86 100 85 88 68 60 55 41 34 33 35 38 34 33 33 16 10 10 21 34
4 4 4 4 4 5 6 6 8 11 13 16 22 17 24 22 23 21 24 21 21 22 20 18 18 18 17 17 19 26 30 96 99 73 78 82 73 49 36 43 28 20 10 9 10 16 26
4 4 4 4 4 4 6 7 9 12 15 21 28 22 84 26 25 21 24 26 21 23 22 20 20 17 17 16 15 13 13 14 39 53 54 71 66 99 73 30 12 10 10 10 10 14 31
3 3 3 4 4 5 6 8 10 11 17 26 34 31 41 30 100 40 27 87 24 23 22 21 21 20 18 18 17 15 13 12 12 12 11 13 13 12 14 13 10 11 11 10 12 15 21
3 3 2 3 4 5 5 7 9 12 20 33 40 34 60 100 66 98 82 74 44 28 53 28 22 24 23 22 19 18 17 15 12 12 12 12 10 10 11 11 11 11 11 14 16 13 13
4 4 3 3 4 5 6 8 11 14 19 28 34 67 72 30 34 37 92 84 76 100 100 56 40 28 21 20 19 19 20 21 18 15 13 12 12 11 11 12 11 13 17 13 12 18 20
5 4 3 3 4 6 7 9 12 15 19 85 84 52 40 71 43 54 100 100 100 76 98 100 60 36 28 26 22 21 22 35 70 65 31 17 13 13 13 12 13 15 16 15 18 24 24
6 4 4 5 4 7 7 9 13 19 24 76 87 37 36 45 77 100 100 100 100 100 100 100 37 34 33 28 27 25 24 26 76 57 66 67 55 29 16 18 18 20 20 20 19 27 24
6 5 5 5 4 7 8 9 11 19 27 28 30 34 46 36 100 100 100 99 99 100 96 87 50 40 48 57 34 33 36 48 61 99 100 87 69 62 49 44 29 26 24 22 28 24 34
6 5 6 5 4 6 10 10 13 18 28 33 49 40 36 45 54 88 94 85 100 100 75 100 100 92 62 100 100 100 78 47 79 98 98 77 97 97 78 63 62 59 76 100 98 88 83
6 5 6 6 5 6 9 10 14 19 22 25 37 35 38 54 58 97 76 100 100 98 98 100 100 100 100 100 100 100 100 100 100 100 100 100 100 100 100 100 100 93 99 81 86 74 68
7 5 6 5 5 7 9 12 14 14 16 24 26 22 28 62 100 94 100 100 100 100 100 100 100 100 100 100 100 100 100 100 100 100 100 87 75 100 100 100 100 100 100 100 100 100 100

GFSGBSN_250_rhum_279.txt.gz
RH
100 100 99 100 95 100 94 83 95 100 100 99 100 100 94 70 100 99 68 48 55 54 48 42 45 44 37 34 38 45 38 40 38 35 39 41 36 45 100 100 100 95 100 98 98 100 100
100 100 91 100 100 100 100 99 79 90 100 100 100 100 100 100 92 95 100 93 70 51 51 49 37 35 34 38 41 52 38 38 36 32 33 36 38 62 100 99 74 57 49 71 100 100 96
100 100 100 100 88 99 94 99 100 86 100 100 100 100 100 100 100 100 100 95 100 97 84 58 54 48 41 46 41 55 35 36 35 35 32 40 49 85 100 43 37 29 53 97 100 100 100
92 99 100 100 100 100 96 88 88 99 86 100 94 100 100 100 100 100 98 100 100 99 99 87 72 70 66 58 46 52 50 51 43 42 39 45 57 68 35 39 72 83 100 100 99 100 100
44 66 92 100 100 100 100 100 100 94 88 90 94 95 100 100 100 100 100 100 100 98 99 100 90 74 64 68 69 62 76 68 58 62 48 50 41 42 55 70 100 95 100 100 100 100 100
9 24 41 75 90 100 100 100 100 100 100 92 78 67 96 100 100 100 78 100 100 100 94 76 73 61 100 97 86 88 91 91 86 77 86 80 36 57 55 90 100 95 59 64 66 76 80
8 10 14 25 46 65 91 100 100 100 100 86 65 71 75 100 100 100 100 85 97 100 75 97 100 98 100 91 69 100 100 100 92 97 100 77 70 97 100 100 100 100 100 100 77 84 89
12 8 8 11 26 43 70 81 92 100 100 100 100 100 91 71 78 96 87 91 89 65 72 71 89 95 100 99 100 100 100 97 100 100 100 100 100 100 100 99 96 100 100 100 90 84 72
25 20 11 8 10 16 27 54 56 80 91 100 100 100 100 98 75 75 69 84 95 100 77 87 75 75 79 83 70 90 97 93 94 95 93 75 96 92 99 78 99 99 85 85 83 61 64
29 27 26 20 10 8 10 14 32 36 41 75 95 100 100 100 100 98 72 89 80 76 68 79 80 59 71 62 72 74 100 78 83 91 86 82 100 97 96 87 76 72 74 59 63 60 62
27 26 28 24 24 20 14 11 12 14 22 28 64 90 100 100 100 100 100 100 100 87 60 86 68 65 60 66 75 80 85 83 49 64 59 67 75 64 45 52 50 47 52 56 59 63 63
25 21 22 23 21 20 22 22 14 11 14 17 24 34 51 87 99 100 100 100 100 94 68 63 66 82 61 57 66 66 69 74 69 61 64 64 64 50 49 46 46 55 52 60 67 83 88
31 26 25 22 21 21 17 18 18 18 14 14 19 16 20 40 47 78 97 100 100 98 99 89 68 69 90 74 67 59 62 72 73 65 70 70 68 70 55 51 59 66 69 80 92 98 78
29 23 23 21 19 18 17 16 16 17 17 15 17 23 19 20 26 38 42 83 95 94 100 100 100 77 54 90 66 62 48 54 63 64 67 69 69 80 80 68 70 73 70 92 96 83 75
38 28 23 20 18 18 16 15 15 15 15 16 16 16 17 18 22 22 30 40 61 78 100 100 100 100 86 100 82 70 50 41 40 41 46 62 52 68 56 42 38 45 43 48 48 46 44
46 38 33 29 25 22 21 20 18 18 18 18 15 15 14 18 18 22 20 27 43 43 59 88 99 99 100 100 100 92 82 69 55 43 44 35 33 36 39 47 44 39 33 38 36 36 38
37 32 30 24 23 21 20 16 19 20 21 22 22 16 13 14 16 18 16 14 21 28 33 38 38 84 99 100 100 98 89 80 56 59 51 48 45 46 50 43 36 34 33 39 40 34 31
31 27 29 22 16 15 14 13 14 17 20 23 23 20 16 16 17 15 17 14 15 15 19 32 27 39 58 75 100 100 100 100 73 73 76 59 60 58 49 38 27 26 39 42 58 34 23
18 16 13 12 9 9 8 8 9 9 10 13 14 16 18 17 15 16 14 17 18 15 16 18 21 21 26 38 58 80 91 94 98 99 100 100 92 74 59 51 50 32 41 58 40 34 51
13 11 10 9 8 7 6 6 6 6 7 8 10 10 12 14 14 13 12 13 15 16 16 17 18 20 21 24 29 44 52 50 59 50 35 32 62 83 63 26 21 61 70 38 21 15 12
11 11 9 8 7 6 6 6 6 6 7 7 7 8 9 10 9 11 10 11 13 14 14 16 16 18 20 21 23 24 33 24 25 24 22 20 17 15 14 13 11 10 11 11 11 11 10
8 8 7 6 6 6 5 5 6 6 7 6 6 7 8 10 9 10 11 12 44 27 13 16 18 18 18 21 24 23 24 23 22 20 18 18 14 14 14 13 12 9 9 11 11 10 9
7 7 7 6 6 5 5 5 5 6 6 6 7 9 10 11 10 9 14 18 66 51 18 30 29 35 29 34 26 22 22 24 22 21 20 19 17 15 15 13 13 11 12 11 11 12 11
7 7 6 6 6 5 5 5 5 6 6 7 8 10 10 11 12 16 20 28 80 50 90 95 54 48 53 42 25 23 22 24 23 21 20 21 21 18 17 16 13 15 13 13 12 12 12
7 6 4 4 4 4 4 4 5 6 6 7 9 12 12 14 14 26 82 100 93 70 100 88 76 66 67 44 40 42 37 26 26 25 23 23 26 23 21 18 16 15 16 15 15 14 20
4 4 4 4 4 5 4 4 4 6 7 9 10 12 20 27 22 61 100 100 100 100 100 100 100 98 78 75 75 48 48 57 50 35 34 32 28 24 29 25 19 34 36 24 23 25 35
5 5 6 6 6 6 5 5 5 5 7 10 14 18 28 47 38 51 84 100 100 100 100 100 100 100 100 94 87 71 69 100 58 35 24 27 24 28 29 25 58 76 49 45 45 36 57
7 8 8 7 6 6 6 5 5 6 9 12 16 27 100 99 88 99 92 100 100 100 100 100 100 100 100 94 100 100 100 94 59 35 25 28 28 25 25 38 72 62 83 63 58 55 56
9 8 9 8 6 6 6 5 6 7 11 15 39 100 100 100 100 100 100 100 100 100 100 100 100 100 100 100 100 100 100 97 46 42 38 34 48 40 37 54 57 54 96 97 85 96 98

GFSGBSN_250_rhum_282.txt.gz
RH
95 84 98 100 100 100 100 100 100 100 100 100 100 100 100 100 97 100 92 69 64 52 42 36 32 31 31 30 35 36 31 32 36 39 40 44 42 49 48 43 40 61 96 48 56 100 99
95 100 98 100 100 100 100 100 100 94 100 98 92 100 100 100 100 100 100 100 92 79 66 61 43 38 37 34 34 36 32 29 33 33 34 35 34 35 37 34 35 44 65 41 100 98 87
100 100 66 75 100 88 100 100 100 100 100 100 100 100 100 100 100 100 100 98 100 100 94 78 66 53 54 34 40 44 36 31 33 31 33 32 33 34 34 32 35 44 53 86 100 100 100
100 100 92 90 62 97 100 100 100 92 100 100 100 86 98 97 100 100 100 100 100 98 83 84 92 74 76 60 41 50 44 37 34 32 36 33 36 38 36 36 45 74 79 99 100 100 100
54 81 100 100 100 100 98 100 100 100 100 100 100 100 100 93 100 100 100 90 100 100 100 100 95 84 99 84 80 77 80 71 55 51 50 42 44 54 58 65 82 57 84 100 100 75 94
19 36 66 94 100 100 100 100 100 100 100 100 100 96 68 100 100 97 95 100 100 100 97 92 100 100 100 100 98 94 97 74 65 69 70 76 74 93 98 66 78 90 100 100 100 89 62
9 8 23 49 82 100 100 100 100 100 100 100 100 100 84 100 85 95 95 94 100 100 93 100 93 87 78 100 100 100 98 100 100 98 100 100 92 100 100 92 100 100 100 99 74 77 60
10 10 8 8 32 55 87 96 100 100 100 100 100 100 100 100 100 100 97 100 87 98 96 82 100 100 100 100 100 100 100 100 100 100 100 100 100 100 100 100 100 92 100 95 91 88 88
10 10 10 10 12 16 31 45 66 96 100 100 100 100 100 100 100 100 100 100 91 86 65 91 94 92 96 84 58 100 100 100 100 100 100 100 100 100 100 100 100 87 91 100 100 100 71
20 14 10 10 11 13 12 13 20 40 70 97 100 100 100 100 100 100 100 100 93 94 85 77 87 74 95 79 77 82 71 84 73 98 100 67 94 85 76 82 86 100 100 74 88 83 65
40 34 24 18 15 13 11 10 10 14 16 29 79 96 100 100 100 100 100 100 92 84 67 73 74 75 74 85 87 81 76 68 67 74 75 78 75 80 79 94 89 85 100 78 67 61 54
40 32 31 30 28 22 16 13 11 10 11 13 16 38 83 95 100 100 100 100 100 96 66 50 66 73 84 86 70 65 65 70 64 70 68 72 74 66 81 68 78 85 91 72 64 68 62
47 42 38 33 31 28 29 26 22 17 15 13 12 13 14 46 70 87 100 100 100 85 56 60 56 75 97 87 96 75 65 73 71 68 66 61 69 69 69 68 67 64 71 68 59 67 72
36 34 37 40 38 32 28 23 24 28 30 20 14 13 15 17 16 33 35 64 88 83 85 93 79 91 90 100 100 100 80 74 67 60 67 63 57 52 52 51 54 51 63 62 59 64 61
29 32 29 27 31 35 36 39 29 22 21 24 24 20 16 22 25 32 27 24 35 59 82 100 100 74 68 69 100 100 98 100 86 68 63 58 40 37 46 55 45 48 42 48 43 48 40
30 28 29 33 31 27 26 31 32 32 28 23 18 16 22 32 26 33 27 16 18 28 35 37 89 100 96 100 93 99 100 100 100 90 69 57 52 41 36 41 50 50 51 37 34 36 38
41 37 30 28 27 30 30 29 27 24 24 22 21 16 23 25 24 26 16 9 8 10 17 21 22 36 82 100 100 100 100 100 100 100 100 86 67 71 47 60 53 47 41 33 33 42 43
40 40 38 36 33 31 34 29 31 27 24 19 17 18 23 29 25 21 14 15 12 10 11 15 17 21 25 33 73 100 100 100 100 100 100 100 100 83 89 74 58 44 57 52 49 49 42
39 41 42 46 49 58 45 39 43 34 28 26 22 20 25 32 20 17 16 17 16 15 16 13 14 17 20 21 18 22 66 94 100 100 100 100 100 100 100 92 76 60 62 67 63 51 44
46 48 47 57 59 52 45 43 44 41 33 27 23 20 29 32 28 24 18 15 14 14 15 15 15 15 17 16 17 17 20 25 37 65 92 100 98 100 100 100 100 87 84 65 64 67 24
46 56 56 56 71 52 51 46 41 46 37 32 23 19 29 27 27 28 28 26 16 15 13 14 13 12 14 17 18 16 17 18 18 21 27 37 57 84 84 85 89 86 77 72 59 32 16
36 51 47 48 45 38 38 37 25 24 22 14 11 10 11 11 13 16 17 18 17 17 14 11 12 13 14 15 16 18 18 19 19 18 18 19 29 24 32 47 60 67 62 40 26 17 14
15 16 17 17 17 16 15 15 14 12 10 7 7 7 7 7 8 8 9 11 11 13 12 13 13 15 12 12 14 15 16 18 16 16 16 16 16 17 19 18 20 27 27 34 22 15 13
12 12 12 12 12 11 11 10 10 9 8 7 7 7 6 7 7 6 8 9 10 12 12 17 16 16 14 13 12 12 15 15 15 16 16 16 17 16 16 16 16 20 16 16 16 14 14
11 11 11 11 10 9 9 9 9 8 8 7 7 6 6 7 7 6 8 8 11 12 13 16 18 19 26 18 16 18 20 16 15 19 19 16 15 16 19 21 19 21 20 18 15 15 13
11 10 9 9 8 8 8 8 8 7 6 6 6 6 5 6 7 8 8 9 9 12 13 14 19 26 46 40 41 87 62 76 78 41 42 32 44 32 33 25 23 28 22 18 19 17 16
8 8 8 8 8 8 8 8 8 7 7 6 7 6 6 6 8 9 9 10 8 10 12 17 42 47 93 100 100 100 100 98 99 95 74 62 54 52 69 61 58 66 40 25 20 25 18
9 10 10 9 9 8 8 8 8 7 6 7 6 6 6 8 9 10 9 10 11 11 17 46 100 100 100 100 100 100 100 100 100 100 76 69 69 51 55 55 87 61 49 42 36 31 26
9 9 9 9 8 8 7 6 6 5 5 5 5 5 6 8 10 9 10 14 23 20 70 100 98 100 100 100 100 100 97 87 85 76 69 75 90 100 100 89 54 39 34 34 34 31 38

GFSGBSN_250_rhum_285.txt.gz
RH
59 70 100 100 100 100 100 100 100 100 100 100 100 100 100 100 97 88 72 58 45 42 42 39 38 39 44 45 36 27 27 30 36 37 39 39 40 41 35 34 36 34 33 31 30 61 100
59 44 62 98 100 100 100 100 100 100 98 100 98 100 100 98 100 100 89 77 70 62 55 50 44 39 36 37 43 44 36 30 32 35 35 33 34 34 35 35 38 36 39 31 36 73 100
96 70 35 42 75 100 100 100 93 100 100 100 100 100 100 100 100 100 100 100 99 88 81 75 68 59 46 40 43 42 38 35 34 31 33 35 34 36 35 30 39 38 33 42 65 93 100
100 100 100 62 58 79 90 100 100 94 100 100 100 100 100 100 100 100 100 100 100 100 100 100 100 95 82 68 63 57 53 42 43 45 40 42 42 38 41 46 45 47 52 70 91 97 100
100 100 100 100 100 100 69 80 100 100 100 100 100 98 100 100 100 100 100 100 97 100 100 100 100 100 100 100 94 92 86 75 60 53 48 37 43 54 56 56 60 78 82 88 98 100 100
79 92 99 100 100 100 98 74 42 78 100 100 100 100 94 100 100 100 100 100 90 100 95 100 100 100 100 100 100 98 100 100 96 85 84 86 82 83 91 80 81 92 100 100 100 97 89
17 26 56 98 100 100 100 100 100 56 81 99 100 100 100 82 100 100 100 100 100 96 100 68 69 100 100 100 90 100 100 100 100 100 100 94 95 100 100 100 100 100 100 100 100 89 86
9 8 11 18 58 96 99 100 100 100 78 56 76 100 100 98 100 100 93 88 98 99 100 100 100 98 100 86 100 100 100 100 100 100 97 98 100 100 100 100 100 100 100 100 96 87 85
11 10 9 8 10 33 60 84 100 100 100 100 95 80 88 100 100 100 100 100 88 65 88 100 100 100 100 99 97 100 100 87 89 100 100 97 100 93 100 100 97 78 71 83 76 75 51
19 16 13 10 9 9 11 30 67 92 100 100 100 100 98 82 95 100 100 100 92 82 69 100 81 56 78 79 95 100 98 100 77 84 100 100 100 93 61 100 65 66 69 76 74 66 62
29 30 24 19 14 12 11 8 7 48 70 99 100 100 100 100 100 100 100 100 94 98 71 90 98 91 77 71 86 94 74 66 78 75 87 99 100 91 75 96 93 91 89 82 83 71 59
31 35 34 35 26 18 15 12 11 11 19 26 80 98 100 100 100 100 100 100 94 77 72 81 100 100 95 100 91 74 88 92 74 67 79 86 76 81 78 84 83 83 89 90 87 86 74
50 39 34 38 31 31 26 18 14 13 14 16 16 26 69 99 100 100 100 100 100 63 68 70 63 81 100 100 100 96 88 86 100 96 77 68 63 72 64 67 71 65 66 78 69 69 68
40 44 49 37 33 39 30 29 25 18 16 16 14 14 18 22 66 98 100 100 95 59 93 80 87 76 72 97 100 100 100 77 83 82 75 82 77 74 55 50 44 51 54 60 61 54 51
48 43 42 47 43 44 36 35 28 24 23 22 19 18 15 15 15 19 24 40 63 85 92 100 88 66 79 72 93 100 100 96 79 64 68 80 80 79 78 48 53 58 55 65 53 55 41
43 50 47 42 40 44 43 43 32 27 26 27 31 36 43 27 26 21 14 10 16 14 23 54 94 100 95 96 100 100 98 98 96 92 79 75 71 90 100 73 56 43 52 39 44 44 40
38 38 49 48 44 39 37 40 40 38 36 34 40 47 48 49 45 43 19 9 8 8 7 8 12 28 48 84 100 100 100 99 100 100 100 98 75 85 84 95 94 57 40 45 56 37 36
36 39 36 43 44 41 35 35 35 38 39 37 40 45 45 48 44 37 24 24 20 18 18 8 7 6 10 14 13 42 92 100 100 100 100 100 100 94 100 100 100 100 98 64 42 41 40
38 36 39 38 41 43 37 35 36 34 32 31 29 32 32 33 32 32 30 34 28 18 14 14 13 14 17 10 16 12 10 22 38 56 91 100 100 100 100 100 100 100 100 100 84 66 59
30 38 38 41 44 43 43 42 40 35 32 30 29 29 27 26 23 24 23 23 24 26 21 21 20 20 17 10 10 11 12 14 17 18 18 24 49 99 100 100 100 95 97 100 100 91 87
24 28 32 42 42 39 42 39 36 35 36 31 27 28 30 27 25 24 23 22 21 20 21 22 22 18 18 18 14 13 17 18 18 19 18 18 19 21 29 46 86 93 97 100 100 89 98
20 23 29 35 44 40 44 48 49 46 39 34 32 33 35 31 26 22 20 19 20 26 21 20 18 19 19 17 16 16 18 18 18 18 17 18 16 17 17 20 20 21 30 34 47 70 72
18 22 25 24 28 32 35 45 46 43 34 27 30 37 32 33 30 26 24 22 23 21 25 22 25 25 16 15 19 19 18 17 16 17 16 16 15 15 15 19 18 15 19 19 17 20 31
18 20 20 25 30 32 35 36 36 32 32 36 32 31 25 23 28 28 27 24 25 24 18 24 26 19 17 24 18 16 13 14 14 14 14 14 15 16 16 18 16 16 19 17 15 14 14
19 18 18 18 20 25 30 33 34 32 31 28 28 28 22 19 18 17 21 24 19 15 13 14 16 16 22 18 16 14 13 13 12 11 12 12 13 14 15 15 16 15 17 17 17 16 14
16 17 16 16 15 16 17 17 19 18 18 16 16 16 12 10 10 13 12 10 9 9 9 10 11 11 12 11 11 13 14 11 9 10 12 13 12 14 13 14 15 16 20 24 17 15 19
14 14 15 15 15 14 14 13 13 12 11 10 11 10 9 7 9 9 8 9 8 8 8 8 8 10 11 10 12 14 12 13 13 14 18 19 20 23 28 21 23 29 81 70 32 44 40
12 12 12 12 12 12 11 10 10 9 9 8 9 8 7 7 10 8 9 9 8 9 8 10 10 10 10 11 14 33 13 18 21 22 30 38 61 76 56 100 100 100 100 92 90 65 39
12 11 11 10 10 9 9 8 8 8 8 7 8 7 7 7 9 7 8 8 8 8 8 8 9 9 11 14 11 11 30 21 24 50 57 52 61 99 100 100 100 100 100 100 100 97 93

GFSGBSN_250_rhum_288.txt.gz
RH
79 60 96 100 100 100 100 100 99 100 100 100 100 100 100 100 100 88 69 60 54 50 48 45 42 42 40 39 44 56 51 46 44 42 38 32 29 36 36 36 35 32 32 32 36 44 48
98 76 98 91 90 100 97 97 100 100 100 100 100 100 100 100 100 100 98 84 72 62 58 53 48 42 44 41 47 53 44 44 52 53 46 43 41 41 40 38 37 33 32 33 32 35 61
100 71 74 64 74 100 100 100 100 100 80 100 100 100 100 100 100 100 100 100 97 89 76 60 56 50 49 49 48 43 45 42 38 36 39 43 39 41 40 36 39 37 34 34 45 50 72
100 100 100 63 58 80 91 100 100 100 100 77 98 100 100 100 100 100 100 100 100 99 100 96 83 64 56 54 54 55 54 49 49 48 47 46 47 42 49 56 55 44 40 66 65 77 88
100 100 100 100 69 53 55 68 99 100 99 100 85 99 100 100 100 100 98 100 92 99 100 100 100 99 92 83 86 87 88 87 79 75 77 75 78 76 74 76 74 75 88 93 94 95 96
100 100 100 100 100 96 66 60 50 79 92 100 100 100 99 98 100 100 100 93 100 91 100 100 100 100 100 96 95 98 100 100 100 100 95 99 99 100 100 96 89 92 100 100 100 88 87
38 100 100 100 100 100 100 79 83 76 40 99 100 99 100 100 79 100 100 98 100 100 96 100 100 100 100 100 100 100 100 100 100 100 100 99 100 100 100 100 100 100 100 100 100 97 64
12 14 46 99 99 100 100 100 100 97 51 36 57 100 100 100 100 92 81 100 99 95 100 100 100 100 100 100 100 100 100 100 100 100 100 100 100 100 100 100 100 97 100 100 99 69 59
13 12 12 15 69 96 98 100 100 100 94 61 60 38 75 100 100 100 100 96 79 83 84 85 100 100 100 100 100 100 100 100 100 100 100 96 100 100 99 97 85 75 73 78 75 71 52
31 20 14 13 14 30 54 97 100 100 100 100 100 64 41 96 95 100 100 98 91 93 88 100 75 94 100 94 100 100 96 96 100 100 100 100 100 76 51 94 91 97 80 63 81 72 66
29 36 28 19 15 15 15 27 47 87 96 100 100 100 100 100 86 76 88 99 100 100 83 88 92 75 52 78 74 85 92 77 87 98 98 95 94 88 94 74 74 73 71 65 61 76 70
42 30 35 34 23 21 18 16 14 12 34 63 86 100 100 100 100 100 92 80 83 97 85 86 92 86 86 72 77 82 83 85 74 67 69 81 80 77 79 70 59 64 72 65 52 68 61
44 50 35 35 36 28 30 23 19 19 16 9 27 53 68 99 100 100 100 100 95 57 86 91 94 100 100 100 100 92 71 54 56 66 74 73 78 75 77 73 65 52 49 42 46 50 46
47 46 53 37 38 42 33 32 32 21 18 20 17 10 22 32 79 100 100 100 88 74 95 95 90 89 100 100 100 100 100 99 100 90 73 76 68 86 86 79 95 95 73 64 36 31 36
51 52 49 48 37 38 48 41 32 36 33 20 22 22 20 13 11 25 42 79 93 100 100 98 89 100 100 100 100 100 100 99 97 80 71 70 85 90 96 90 77 94 97 56 50 51 35
52 56 53 51 50 39 37 49 53 42 32 38 31 29 34 24 21 19 19 22 37 73 95 100 100 96 100 100 98 100 100 100 98 89 74 62 58 74 73 73 81 78 93 94 80 34 34
44 46 52 56 51 54 45 34 43 53 51 46 40 42 35 35 33 23 14 13 15 14 27 52 90 100 100 100 100 100 100 100 100 100 100 92 89 78 89 99 100 93 92 100 92 52 49
48 48 41 48 53 53 52 49 37 36 45 52 56 51 49 37 32 31 26 20 17 13 14 14 18 18 24 67 95 100 94 96 100 100 100 100 100 77 78 100 100 100 100 100 93 97 77
44 47 46 40 45 48 52 54 50 42 37 39 42 45 49 48 45 39 31 34 30 29 20 18 14 14 13 10 10 13 25 41 49 51 39 57 80 88 90 96 100 100 100 100 100 90 82
36 35 40 36 38 37 40 44 49 48 46 40 39 35 34 37 44 39 33 32 39 39 36 40 30 24 20 17 18 9 12 17 22 19 17 17 16 14 23 45 59 88 100 100 95 82 100
27 28 29 29 32 33 34 35 40 42 45 42 43 38 32 27 31 34 34 34 39 37 38 34 29 24 34 26 26 17 23 31 35 38 32 28 22 16 13 12 11 9 10 22 35 44 43
22 22 22 24 28 27 28 34 34 35 35 31 38 38 41 37 31 32 29 30 29 32 33 38 36 38 34 28 37 39 36 30 26 27 25 24 19 14 11 14 14 12 10 11 11 15 17
24 24 23 23 23 26 27 34 37 32 33 27 33 40 38 38 34 26 31 32 30 26 24 24 25 25 24 33 37 24 22 23 23 23 21 19 19 17 11 15 17 9 14 15 17 14 15
21 20 20 19 20 21 22 26 28 33 36 39 37 37 33 27 28 25 26 28 34 36 31 32 25 22 34 34 22 23 21 20 21 18 17 16 17 18 17 18 14 10 14 15 16 15 17
20 20 20 21 22 20 20 20 23 24 27 28 31 36 35 37 51 33 31 27 28 33 29 27 35 36 40 24 19 18 19 19 16 17 19 18 18 16 15 14 13 11 14 16 17 17 16
20 20 20 21 21 21 22 20 19 18 18 20 24 27 26 30 39 32 30 29 32 29 28 26 35 32 30 26 21 19 18 19 17 14 17 18 15 14 12 12 10 10 16 17 15 14 15
19 20 20 20 22 22 21 21 19 16 16 16 16 18 20 20 27 29 28 34 30 28 27 33 37 33 34 29 27 23 17 20 15 16 20 18 17 13 15 13 9 12 20 38 16 20 36
18 18 19 20 20 20 20 20 20 19 18 16 16 15 15 13 17 18 20 22 25 24 22 27 23 27 27 23 20 16 13 15 18 14 15 16 13 12 11 9 8 20 28 46 63 97 57
15 17 18 19 20 20 20 20 20 19 18 16 16 15 12 10 14 14 16 16 19 21 16 15 16 18 18 16 12 11 8 9 9 8 10 9 10 11 12 16 42 99 86 87 78 100 100